Time,TemperatureF,DewpointF,PressureIn,WindDirection,WindDirectionDegrees,WindSpeedMPH,WindSpeedGustMPH,Humidity,HourlyPrecipIn,Conditions,Clouds,dailyrainin,SoftwareType,DateUTC
2013-03-19 00:02:00,11.0,7.0,-100.00,NW,305,19.0,29.0,84,0.00,,,0.00,,2013-03-19 05:02:00,
2013-03-19 00:12:00,10.0,7.0,-100.00,WNW,295,21.0,29.0,84,0.00,,,0.00,,2013-03-19 05:12:00,
2013-03-19 00:22:00,10.0,7.0,-100.00,WNW,295,21.0,29.0,84,0.00,,,0.00,,2013-03-19 05:22:00,
2013-03-19 00:32:00,10.0,5.0,-100.00,WNW,295,17.0,29.0,84,0.00,,,0.00,,2013-03-19 05:32:00,
2013-03-19 00:42:00,10.0,5.0,-100.00,WNW,295,16.0,26.0,85,0.00,,,0.00,,2013-03-19 05:42:00,
2013-03-19 00:52:00,9.0,5.0,-100.00,WNW,295,17.0,24.0,85,0.00,,,0.00,,2013-03-19 05:52:00,
2013-03-19 01:02:00,10.0,5.0,-100.00,WNW,300,17.0,26.0,85,0.00,,,0.00,,2013-03-19 06:02:00,
2013-03-19 01:12:00,9.0,7.0,-100.00,WNW,295,19.0,26.0,86,0.00,,,0.00,,2013-03-19 06:12:00,
2013-03-19 01:22:00,9.0,5.0,-100.00,WNW,300,18.0,28.0,85,0.00,,,0.00,,2013-03-19 06:22:00,
2013-03-19 01:32:00,10.0,5.0,-100.00,WNW,295,17.0,29.0,85,0.00,,,0.00,,2013-03-19 06:32:00,
2013-03-19 01:42:00,9.0,5.0,-100.00,WNW,295,18.0,24.0,85,0.00,,,0.00,,2013-03-19 06:42:00,
2013-03-19 01:52:00,9.0,5.0,-100.00,WNW,295,15.0,23.0,86,0.00,,,0.00,,2013-03-19 06:52:00,
2013-03-19 02:02:00,9.0,5.0,-100.00,WNW,295,18.0,24.0,86,0.00,,,0.00,,2013-03-19 07:02:00,
2013-03-19 02:12:00,9.0,5.0,-100.00,WNW,295,17.0,24.0,86,0.00,,,0.00,,2013-03-19 07:12:00,
2013-03-19 02:21:00,9.0,5.0,-100.00,WNW,295,16.0,26.0,86,0.00,,,0.00,,2013-03-19 07:21:00,
2013-03-19 02:32:00,9.0,5.0,-100.00,WNW,300,17.0,25.0,86,0.00,,,0.00,,2013-03-19 07:32:00,
2013-03-19 02:42:00,9.0,5.0,-100.00,WNW,300,17.0,25.0,86,0.00,,,0.00,,2013-03-19 07:42:00,
2013-03-19 02:52:00,9.0,5.0,-100.00,WNW,300,17.0,23.0,85,0.00,,,0.00,,2013-03-19 07:52:00,
2013-03-19 03:02:00,9.0,5.0,-100.00,WNW,300,17.0,24.0,85,0.00,,,0.00,,2013-03-19 08:02:00,
2013-03-19 03:12:00,9.0,5.0,-100.00,WNW,300,16.0,24.0,85,0.00,,,0.00,,2013-03-19 08:12:00,
2013-03-19 03:22:00,9.0,5.0,-100.00,NW,305,17.0,24.0,85,0.00,,,0.00,,2013-03-19 08:22:00,
2013-03-19 03:32:00,8.0,5.0,-100.00,WNW,300,16.0,25.0,85,0.00,,,0.00,,2013-03-19 08:32:00,
2013-03-19 03:42:00,8.0,5.0,-100.00,WNW,300,14.0,21.0,85,0.00,,,0.00,,2013-03-19 08:42:00,
2013-03-19 03:52:00,8.0,5.0,-100.00,WNW,300,16.0,22.0,85,0.00,,,0.00,,2013-03-19 08:52:00,
2013-03-19 04:02:00,8.0,5.0,-100.00,WNW,300,16.0,22.0,85,0.00,,,0.00,,2013-03-19 09:02:00,
2013-03-19 04:12:00,8.0,5.0,-100.00,WNW,300,15.0,21.0,85,0.00,,,0.00,,2013-03-19 09:12:00,
2013-03-19 04:22:00,8.0,5.0,-100.00,NW,305,17.0,24.0,84,0.00,,,0.00,,2013-03-19 09:22:00,
2013-03-19 04:32:00,8.0,3.0,-100.00,NW,305,18.0,24.0,84,0.00,,,0.00,,2013-03-19 09:32:00,
2013-03-19 04:42:00,8.0,3.0,-100.00,WNW,300,14.0,22.0,84,0.00,,,0.00,,2013-03-19 09:42:00,
2013-03-19 04:52:00,8.0,3.0,-100.00,WNW,295,15.0,27.0,84,0.00,,,0.00,,2013-03-19 09:52:00,
2013-03-19 05:03:00,8.0,3.0,-100.00,WNW,300,16.0,23.0,83,0.00,,,0.00,,2013-03-19 10:03:00,
2013-03-19 05:12:00,8.0,3.0,-100.00,WNW,300,15.0,23.0,83,0.00,,,0.00,,2013-03-19 10:12:00,
2013-03-19 05:23:00,7.0,3.0,-100.00,WNW,295,15.0,23.0,83,0.00,,,0.00,,2013-03-19 10:23:00,
2013-03-19 05:32:00,7.0,3.0,-100.00,WNW,295,13.0,22.0,83,0.00,,,0.00,,2013-03-19 10:32:00,
2013-03-19 05:42:00,7.0,3.0,-100.00,WNW,295,13.0,21.0,84,0.00,,,0.00,,2013-03-19 10:42:00,
2013-03-19 05:52:00,6.0,3.0,-100.00,WNW,300,14.0,21.0,84,0.00,,,0.00,,2013-03-19 10:52:00,
2013-03-19 06:02:00,6.0,1.0,-100.00,WNW,295,12.0,19.0,84,0.00,,,0.00,,2013-03-19 11:02:00,
2013-03-19 06:12:00,5.0,1.0,-100.00,WNW,290,11.0,17.0,85,0.00,,,0.00,,2013-03-19 11:12:00,
2013-03-19 06:22:00,5.0,1.0,-100.00,WNW,290,11.0,17.0,85,0.00,,,0.00,,2013-03-19 11:22:00,
2013-03-19 06:32:00,4.0,1.0,-100.00,WNW,285,11.0,16.0,86,0.00,,,0.00,,2013-03-19 11:32:00,
2013-03-19 06:42:00,3.0,0.0,-100.00,West,280,11.0,16.0,87,0.00,,,0.00,,2013-03-19 11:42:00,
2013-03-19 06:52:00,3.0,0.0,-100.00,West,280,10.0,15.0,87,0.00,,,0.00,,2013-03-19 11:52:00,
2013-03-19 07:02:00,3.0,0.0,-100.00,West,275,11.0,15.0,88,0.00,,,0.00,,2013-03-19 12:02:00,
2013-03-19 07:12:00,3.0,0.0,-100.00,West,280,12.0,16.0,88,0.00,,,0.00,,2013-03-19 12:12:00,
2013-03-19 07:22:00,2.0,0.0,-100.00,WNW,285,12.0,17.0,89,0.00,,,0.00,,2013-03-19 12:22:00,
2013-03-19 07:33:00,3.0,0.0,-100.00,WNW,290,11.0,17.0,89,0.00,,,0.00,,2013-03-19 12:33:00,
2013-03-19 07:42:00,3.0,0.0,-100.00,WNW,290,11.0,17.0,89,0.00,,,0.00,,2013-03-19 12:42:00,
2013-03-19 07:52:00,3.0,0.0,-100.00,WNW,290,11.0,14.0,89,0.00,,,0.00,,2013-03-19 12:52:00,
2013-03-19 08:02:00,3.0,0.0,-100.00,WNW,295,12.0,16.0,88,0.00,,,0.00,,2013-03-19 13:02:00,
2013-03-19 08:12:00,4.0,1.0,-100.00,WNW,290,12.0,16.0,88,0.00,,,0.00,,2013-03-19 13:12:00,
2013-03-19 08:22:00,4.0,1.0,-100.00,WNW,290,13.0,16.0,87,0.00,,,0.00,,2013-03-19 13:22:00,
2013-03-19 08:32:00,5.0,1.0,-100.00,WNW,295,14.0,19.0,86,0.00,,,0.00,,2013-03-19 13:32:00,
2013-03-19 08:42:00,5.0,1.0,-100.00,WNW,300,15.0,19.0,85,0.00,,,0.00,,2013-03-19 13:42:00,
2013-03-19 08:52:00,6.0,1.0,-100.00,WNW,295,13.0,21.0,84,0.00,,,0.00,,2013-03-19 13:52:00,
2013-03-19 09:02:00,6.0,1.0,-100.00,WNW,295,14.0,21.0,83,0.00,,,0.00,,2013-03-19 14:02:00,
2013-03-19 09:12:00,6.0,1.0,-100.00,NW,305,14.0,21.0,82,0.00,,,0.00,,2013-03-19 14:12:00,
2013-03-19 09:22:00,7.0,3.0,-100.00,WNW,300,15.0,20.0,81,0.00,,,0.00,,2013-03-19 14:22:00,
2013-03-19 09:32:00,8.0,3.0,-100.00,NW,305,16.0,22.0,80,0.00,,,0.00,,2013-03-19 14:32:00,
2013-03-19 09:42:00,8.0,3.0,-100.00,NW,325,16.0,22.0,78,0.00,,,0.00,,2013-03-19 14:42:00,
2013-03-19 09:52:00,9.0,3.0,-100.00,NW,310,14.0,21.0,78,0.00,,,0.00,,2013-03-19 14:52:00,
2013-03-19 10:02:00,10.0,3.0,-100.00,NW,310,15.0,22.0,76,0.00,,,0.00,,2013-03-19 15:02:00,
2013-03-19 10:12:00,10.0,3.0,-100.00,NW,310,15.0,22.0,75,0.00,,,0.00,,2013-03-19 15:12:00,
2013-03-19 10:22:00,10.0,3.0,-100.00,WNW,295,13.0,23.0,74,0.00,,,0.00,,2013-03-19 15:22:00,
2013-03-19 10:33:00,10.0,3.0,-100.00,WNW,285,11.0,18.0,73,0.00,,,0.00,,2013-03-19 15:33:00,
2013-03-19 10:43:00,11.0,3.0,-100.00,WNW,285,13.0,19.0,72,0.00,,,0.00,,2013-03-19 15:43:00,
2013-03-19 10:53:00,11.0,3.0,-100.00,WNW,295,11.0,20.0,72,0.00,,,0.00,,2013-03-19 15:53:00,
2013-03-19 11:03:00,11.0,3.0,-100.00,WNW,300,14.0,23.0,71,0.00,,,0.00,,2013-03-19 16:03:00,
2013-03-19 11:13:00,11.0,3.0,-100.00,WNW,300,16.0,23.0,70,0.00,,,0.00,,2013-03-19 16:13:00,
2013-03-19 11:23:00,12.0,3.0,-100.00,WNW,295,13.0,21.0,69,0.00,,,0.00,,2013-03-19 16:23:00,
2013-03-19 11:34:00,12.0,3.0,-100.00,WNW,290,15.0,21.0,68,0.00,,,0.00,,2013-03-19 16:34:00,
2013-03-19 11:43:00,13.0,3.0,-100.00,NW,305,14.0,21.0,67,0.00,,,0.00,,2013-03-19 16:43:00,
2013-03-19 11:53:00,13.0,3.0,-100.00,WNW,300,14.0,21.0,67,0.00,,,0.00,,2013-03-19 16:53:00,
2013-03-19 12:03:00,14.0,5.0,-100.00,WNW,290,14.0,19.0,66,0.00,,,0.00,,2013-03-19 17:03:00,
2013-03-19 12:13:00,14.0,5.0,-100.00,WNW,295,14.0,19.0,65,0.00,,,0.00,,2013-03-19 17:13:00,
2013-03-19 12:23:00,15.0,5.0,-100.00,WNW,290,12.0,17.0,65,0.00,,,0.00,,2013-03-19 17:23:00,
2013-03-19 12:34:00,15.0,5.0,-100.00,WNW,295,16.0,21.0,64,0.00,,,0.00,,2013-03-19 17:34:00,
2013-03-19 12:43:00,16.0,5.0,-100.00,West,275,12.0,24.0,63,0.00,,,0.00,,2013-03-19 17:43:00,
2013-03-19 12:52:00,16.0,5.0,-100.00,WNW,285,16.0,21.0,63,0.00,,,0.00,,2013-03-19 17:52:00,
2013-03-19 13:03:00,16.0,5.0,-100.00,WNW,300,13.0,19.0,62,0.00,,,0.00,,2013-03-19 18:03:00,
2013-03-19 13:13:00,16.0,5.0,-100.00,NW,310,16.0,19.0,63,0.00,,,0.00,,2013-03-19 18:13:00,
2013-03-19 13:23:00,16.0,5.0,-100.00,NW,310,17.0,24.0,61,0.00,,,0.00,,2013-03-19 18:23:00,
2013-03-19 13:33:00,17.0,5.0,-100.00,West,280,14.0,22.0,61,0.00,,,0.00,,2013-03-19 18:33:00,
2013-03-19 13:42:00,17.0,5.0,-100.00,NW,305,13.0,23.0,60,0.00,,,0.00,,2013-03-19 18:42:00,
2013-03-19 14:02:00,18.0,7.0,-100.00,NW,305,16.0,23.0,59,0.00,,,0.00,,2013-03-19 19:02:00,
2013-03-19 14:12:00,18.0,7.0,-100.00,NW,305,15.0,22.0,59,0.00,,,0.00,,2013-03-19 19:12:00,
2013-03-19 14:22:00,19.0,7.0,-100.00,NW,305,14.0,23.0,58,0.00,,,0.00,,2013-03-19 19:22:00,
2013-03-19 14:32:00,19.0,7.0,-100.00,NW,305,16.0,22.0,58,0.00,,,0.00,,2013-03-19 19:32:00,
2013-03-19 14:42:00,20.0,7.0,-100.00,West,270,17.0,22.0,58,0.00,,,0.00,,2013-03-19 19:42:00,
2013-03-19 14:52:00,19.0,7.0,-100.00,West,275,18.0,22.0,57,0.00,,,0.00,,2013-03-19 19:52:00,
2013-03-19 15:02:00,19.0,7.0,-100.00,WNW,290,13.0,24.0,58,0.00,,,0.00,,2013-03-19 20:02:00,
2013-03-19 15:12:00,19.0,7.0,-100.00,NW,310,17.0,22.0,58,0.00,,,0.00,,2013-03-19 20:12:00,
2013-03-19 15:22:00,18.0,5.0,-100.00,NW,305,20.0,29.0,57,0.00,,,0.00,,2013-03-19 20:22:00,
2013-03-19 15:32:00,18.0,5.0,-100.00,WNW,300,20.0,29.0,56,0.00,,,0.00,,2013-03-19 20:32:00,
2013-03-19 15:42:00,19.0,5.0,-100.00,WNW,295,19.0,26.0,55,0.00,,,0.00,,2013-03-19 20:42:00,
2013-03-19 15:52:00,19.0,5.0,-100.00,WNW,295,20.0,29.0,55,0.00,,,0.00,,2013-03-19 20:52:00,
2013-03-19 16:02:00,19.0,5.0,-100.00,WNW,290,18.0,26.0,55,0.00,,,0.00,,2013-03-19 21:02:00,
2013-03-19 16:12:00,19.0,5.0,-100.00,NW,305,17.0,24.0,55,0.00,,,0.00,,2013-03-19 21:12:00,
2013-03-19 16:22:00,19.0,5.0,-100.00,NW,305,19.0,25.0,54,0.00,,,0.00,,2013-03-19 21:22:00,
2013-03-19 16:33:00,19.0,5.0,-100.00,WNW,295,17.0,23.0,54,0.00,,,0.00,,2013-03-19 21:33:00,
2013-03-19 16:42:00,18.0,5.0,-100.00,WNW,295,17.0,22.0,54,0.00,,,0.00,,2013-03-19 21:42:00,
2013-03-19 16:52:00,18.0,5.0,-100.00,NW,305,20.0,27.0,54,0.00,,,0.00,,2013-03-19 21:52:00,
2013-03-19 17:03:00,18.0,3.0,-100.00,WNW,295,22.0,30.0,53,0.00,,,0.00,,2013-03-19 22:03:00,
2013-03-19 17:12:00,18.0,3.0,-100.00,WNW,295,19.0,30.0,53,0.00,,,0.00,,2013-03-19 22:12:00,
2013-03-19 17:23:00,18.0,3.0,-100.00,WNW,300,19.0,27.0,53,0.00,,,0.00,,2013-03-19 22:23:00,
2013-03-19 17:33:00,18.0,3.0,-100.00,NW,305,20.0,29.0,52,0.00,,,0.00,,2013-03-19 22:33:00,
2013-03-19 17:43:00,18.0,3.0,-100.00,NW,305,22.0,32.0,51,0.00,,,0.00,,2013-03-19 22:43:00,
2013-03-19 17:52:00,18.0,3.0,-100.00,NW,320,21.0,31.0,50,0.00,,,0.00,,2013-03-19 22:52:00,
2013-03-19 18:02:00,18.0,1.0,-100.00,NW,310,26.0,32.0,50,0.00,,,0.00,,2013-03-19 23:02:00,
2013-03-19 18:12:00,18.0,1.0,-100.00,NW,320,22.0,30.0,49,0.00,,,0.00,,2013-03-19 23:12:00,
2013-03-19 18:22:00,17.0,1.0,-100.00,NW,305,17.0,28.0,50,0.00,,,0.00,,2013-03-19 23:22:00,
2013-03-19 18:32:00,16.0,1.0,-100.00,WNW,300,21.0,31.0,50,0.00,,,0.00,,2013-03-19 23:32:00,
2013-03-19 18:42:00,16.0,0.0,-100.00,NW,310,20.0,28.0,51,0.00,,,0.00,,2013-03-19 23:42:00,
2013-03-19 18:52:00,16.0,0.0,-100.00,NW,305,19.0,29.0,51,0.00,,,0.00,,2013-03-19 23:52:00,
2013-03-19 19:02:00,15.0,0.0,-100.00,WNW,300,17.0,27.0,51,0.00,,,0.00,,2013-03-20 00:02:00,
2013-03-19 19:12:00,15.0,0.0,-100.00,NW,305,18.0,29.0,52,0.00,,,0.00,,2013-03-20 00:12:00,
2013-03-19 19:22:00,14.0,0.0,-100.00,WNW,300,14.0,25.0,52,0.00,,,0.00,,2013-03-20 00:22:00,
2013-03-19 19:33:00,14.0,0.0,-100.00,NW,305,18.0,22.0,53,0.00,,,0.00,,2013-03-20 00:33:00,
2013-03-19 19:42:00,13.0,0.0,-100.00,WNW,300,16.0,24.0,54,0.00,,,0.00,,2013-03-20 00:42:00,
2013-03-19 19:52:00,13.0,0.0,-100.00,WNW,300,13.0,22.0,55,0.00,,,0.00,,2013-03-20 00:52:00,
2013-03-19 20:03:00,13.0,0.0,-100.00,NW,305,15.0,20.0,56,0.00,,,0.00,,2013-03-20 01:03:00,
2013-03-19 20:12:00,13.0,0.0,-100.00,WNW,300,14.0,21.0,56,0.00,,,0.00,,2013-03-20 01:12:00,
2013-03-19 20:22:00,12.0,0.0,-100.00,NW,305,17.0,26.0,57,0.00,,,0.00,,2013-03-20 01:22:00,
2013-03-19 20:32:00,12.0,0.0,-100.00,WNW,300,16.0,24.0,58,0.00,,,0.00,,2013-03-20 01:32:00,
2013-03-19 20:42:00,12.0,0.0,-100.00,NW,305,17.0,24.0,58,0.00,,,0.00,,2013-03-20 01:42:00,
2013-03-19 20:52:00,11.0,0.0,-100.00,NW,305,16.0,26.0,59,0.00,,,0.00,,2013-03-20 01:52:00,
2013-03-19 21:02:00,11.0,0.0,-100.00,NW,305,17.0,26.0,60,0.00,,,0.00,,2013-03-20 02:02:00,
2013-03-19 21:12:00,11.0,0.0,-100.00,NW,310,17.0,26.0,61,0.00,,,0.00,,2013-03-20 02:12:00,
2013-03-19 21:22:00,11.0,0.0,-100.00,NW,305,19.0,23.0,61,0.00,,,0.00,,2013-03-20 02:22:00,
2013-03-19 21:32:00,10.0,0.0,-100.00,NW,305,17.0,24.0,61,0.00,,,0.00,,2013-03-20 02:32:00,
2013-03-19 21:42:00,10.0,0.0,-100.00,NW,305,16.0,23.0,61,0.00,,,0.00,,2013-03-20 02:42:00,
2013-03-19 21:52:00,10.0,0.0,-100.00,NW,305,16.0,26.0,61,0.00,,,0.00,,2013-03-20 02:52:00,
2013-03-19 22:02:00,9.0,-2.0,-100.00,NW,310,15.0,23.0,61,0.00,,,0.00,,2013-03-20 03:02:00,
2013-03-19 22:12:00,10.0,-2.0,-100.00,NW,310,14.0,23.0,61,0.00,,,0.00,,2013-03-20 03:12:00,
2013-03-19 22:22:00,9.0,-2.0,-100.00,NW,305,17.0,24.0,61,0.00,,,0.00,,2013-03-20 03:22:00,
2013-03-19 22:33:00,9.0,-2.0,-100.00,NW,310,16.0,24.0,61,0.00,,,0.00,,2013-03-20 03:33:00,
2013-03-19 22:42:00,9.0,-2.0,-100.00,NW,305,17.0,24.0,61,0.00,,,0.00,,2013-03-20 03:42:00,
2013-03-19 22:53:00,9.0,-2.0,-100.00,NW,305,16.0,22.0,61,0.00,,,0.00,,2013-03-20 03:53:00,
2013-03-19 23:03:00,9.0,-2.0,-100.00,WNW,300,17.0,24.0,62,0.00,,,0.00,,2013-03-20 04:03:00,
2013-03-19 23:12:00,9.0,-2.0,-100.00,WNW,300,17.0,24.0,63,0.00,,,0.00,,2013-03-20 04:12:00,
2013-03-19 23:22:00,9.0,-2.0,-100.00,NW,305,16.0,27.0,64,0.00,,,0.00,,2013-03-20 04:22:00,
2013-03-19 23:32:00,9.0,0.0,-100.00,NW,305,17.0,24.0,65,0.00,,,0.00,,2013-03-20 04:32:00,
2013-03-19 23:43:00,9.0,0.0,-100.00,NW,305,17.0,24.0,64,0.00,,,0.00,,2013-03-20 04:43:00,
2013-03-19 23:52:00,9.0,-2.0,-100.00,NW,305,17.0,24.0,64,0.00,,,0.00,,2013-03-20 04:52:00,